When you browse on this site, cookies collect data to enhance your experience and personalize the content and advertising you see.
Visit our Privacy Policy to learn more. By continuing to use the site, you agree to this use of cookies and data.
  • In Hungary
  • List of Countries
  • For 7 days
  • Water Temperature
  • Weather Map
  • News
  • Weather Widgets
  • user-avatar
    Login

    Hourly Weather Hilkovo

    Today, 22 October, Tuesday

    Time Temperature Precipitation Wind Pressure Humidity
    00:00 +9°C° 0 mm 7 mps 757 mmHg 78%
    01:00 +9°C° 0 mm 7 mps 757 mmHg 78%
    02:00 +9°C° 0 mm 7 mps 756 mmHg 78%
    03:00 +9°C° 0 mm 7 mps 755 mmHg 78%
    04:00 +9°C° 0.4 mm 7 mps 755 mmHg 80%
    05:00 +9°C° 0.4 mm 7 mps 755 mmHg 82%
    06:00 +8°C° 0.4 mm 6 mps 755 mmHg 83%
    07:00 +8°C° 1.2 mm 6 mps 755 mmHg 86%
    08:00 +8°C° 1.2 mm 5 mps 755 mmHg 89%
    09:00 +8°C° 1.2 mm 5 mps 755 mmHg 92%
    10:00 +10°C° 0 mm 4 mps 756 mmHg 89%
    11:00 +11°C° 0 mm 3 mps 756 mmHg 86%
    12:00 +12°C° 0 mm 3 mps 756 mmHg 83%
    13:00 +12°C° 0 mm 3 mps 756 mmHg 80%
    14:00 +13°C° 0 mm 2 mps 756 mmHg 77%
    15:00 +14°C° 0 mm 2 mps 756 mmHg 74%
    16:00 +12°C° 0 mm 2 mps 757 mmHg 78%
    17:00 +10°C° 0 mm 2 mps 757 mmHg 82%
    18:00 +9°C° 0 mm 2 mps 757 mmHg 86%
    19:00 +8°C° 0 mm 2 mps 757 mmHg 86%
    20:00 +8°C° 0 mm 2 mps 757 mmHg 86%
    21:00 +7°C° 0 mm 2 mps 757 mmHg 86%
    22:00 +7°C° 0 mm 2 mps 757 mmHg 87%
    23:00 +7°C° 0 mm 1 mps 757 mmHg 88%

    Tomorrow, 23 October, Wednesday

    Time Temperature Precipitation Wind Pressure Humidity
    00:00 +7°C° 0 mm 1 mps 757 mmHg 88%
    01:00 +7°C° 0 mm 1 mps 757 mmHg 89%
    02:00 +6°C° 0 mm 1 mps 757 mmHg 90%
    03:00 +5°C° 0 mm 2 mps 758 mmHg 90%
    04:00 +6°C° 0 mm 1 mps 757 mmHg 89%
    05:00 +6°C° 0 mm 1 mps 757 mmHg 87%
    06:00 +6°C° 0 mm 1 mps 757 mmHg 86%
    07:00 +6°C° 0 mm 2 mps 757 mmHg 84%
    08:00 +7°C° 0 mm 2 mps 757 mmHg 82%
    09:00 +8°C° 0 mm 3 mps 757 mmHg 80%
    10:00 +9°C° 0 mm 3 mps 757 mmHg 77%
    11:00 +10°C° 0 mm 4 mps 756 mmHg 73%
    12:00 +10°C° 0 mm 5 mps 756 mmHg 69%
    13:00 +10°C° 0 mm 5 mps 755 mmHg 69%
    14:00 +10°C° 0 mm 5 mps 755 mmHg 69%
    15:00 +10°C° 0 mm 5 mps 755 mmHg 69%
    16:00 +10°C° 0 mm 5 mps 754 mmHg 71%
    17:00 +9°C° 0 mm 5 mps 754 mmHg 73%
    18:00 +10°C° 0 mm 4 mps 754 mmHg 76%
    19:00 +9°C° 0.1 mm 5 mps 754 mmHg 79%
    20:00 +9°C° 0.1 mm 5 mps 754 mmHg 83%
    21:00 +9°C° 0.1 mm 5 mps 754 mmHg 87%
    22:00 +9°C° 0 mm 5 mps 754 mmHg 89%
    23:00 +10°C° 0 mm 4 mps 754 mmHg 91%

    Day after tomorrow, 24 October, Thursday

    Time Temperature Precipitation Wind Pressure Humidity
    00:00 +10°C° 0 mm 4 mps 754 mmHg 93%
    01:00 +10°C° 0 mm 3 mps 754 mmHg 93%
    02:00 +9°C° 0 mm 3 mps 754 mmHg 94%
    03:00 +9°C° 0 mm 2 mps 754 mmHg 94%
    04:00 +9°C° 0 mm 2 mps 755 mmHg 93%
    05:00 +8°C° 0 mm 2 mps 755 mmHg 92%
    06:00 +8°C° 0 mm 2 mps 755 mmHg 90%
    07:00 +10°C° 0 mm 1 mps 755 mmHg 86%
    08:00 +11°C° 0 mm 1 mps 755 mmHg 81%
    09:00 +11°C° 0 mm 0 mps 756 mmHg 76%
    10:00 +12°C° 0 mm 1 mps 756 mmHg 73%
    11:00 +13°C° 0 mm 1 mps 756 mmHg 70%
    12:00 +14°C° 0 mm 1 mps 756 mmHg 67%
    13:00 +14°C° 0 mm 1 mps 756 mmHg 68%
    14:00 +14°C° 0 mm 1 mps 756 mmHg 69%
    15:00 +14°C° 0 mm 1 mps 756 mmHg 70%
    16:00 +13°C° 0 mm 1 mps 757 mmHg 74%
    17:00 +12°C° 0 mm 1 mps 757 mmHg 78%
    18:00 +11°C° 0 mm 0 mps 757 mmHg 81%
    19:00 +10°C° 0 mm 0 mps 757 mmHg 82%
    20:00 +11°C° 0 mm 1 mps 757 mmHg 83%
    21:00 +11°C° 0 mm 1 mps 757 mmHg 83%
    22:00 +11°C° 0 mm 1 mps 757 mmHg 84%
    23:00 +11°C° 0 mm 1 mps 757 mmHg 84%

    25 October, Friday

    Time Temperature Precipitation Wind Pressure Humidity
    00:00 +10°C° 0 mm 1 mps 757 mmHg 84%
    01:00 +11°C° 0 mm 1 mps 757 mmHg 83%
    02:00 +11°C° 0 mm 1 mps 757 mmHg 81%
    03:00 +11°C° 0 mm 1 mps 757 mmHg 80%
    04:00 +10°C° 0 mm 1 mps 757 mmHg 81%
    05:00 +10°C° 0 mm 1 mps 757 mmHg 82%
    06:00 +10°C° 0 mm 1 mps 757 mmHg 83%
    07:00 +10°C° 0 mm 1 mps 757 mmHg 80%
    08:00 +11°C° 0 mm 1 mps 758 mmHg 77%
    09:00 +11°C° 0 mm 1 mps 758 mmHg 75%
    10:00 +12°C° 0 mm 2 mps 758 mmHg 73%
    11:00 +12°C° 0 mm 2 mps 758 mmHg 72%
    12:00 +12°C° 0 mm 2 mps 758 mmHg 71%
    13:00 +12°C° 0 mm 2 mps 758 mmHg 70%
    14:00 +12°C° 0 mm 2 mps 758 mmHg 70%
    15:00 +12°C° 0 mm 2 mps 758 mmHg 70%
    16:00 +10°C° 0 mm 2 mps 758 mmHg 73%
    17:00 +9°C° 0 mm 2 mps 758 mmHg 77%
    18:00 +8°C° 0 mm 2 mps 758 mmHg 81%
    19:00 +8°C° 0 mm 2 mps 759 mmHg 82%
    20:00 +8°C° 0 mm 2 mps 759 mmHg 83%
    21:00 +8°C° 0 mm 1 mps 759 mmHg 84%
    22:00 +8°C° 0 mm 1 mps 759 mmHg 85%
    23:00 +8°C° 0 mm 1 mps 759 mmHg 86%

    26 October, Saturday

    Time Temperature Precipitation Wind Pressure Humidity
    00:00 +7°C° 0 mm 1 mps 759 mmHg 87%
    01:00 +7°C° 0 mm 1 mps 759 mmHg 87%
    02:00 +7°C° 0 mm 1 mps 759 mmHg 88%
    03:00 +7°C° 0 mm 1 mps 760 mmHg 89%
    04:00 +7°C° 0 mm 1 mps 760 mmHg 89%
    05:00 +6°C° 0 mm 1 mps 760 mmHg 89%
    06:00 +6°C° 0 mm 1 mps 760 mmHg 90%
    07:00 +7°C° 0 mm 1 mps 760 mmHg 86%
    08:00 +7°C° 0 mm 2 mps 760 mmHg 83%
    09:00 +9°C° 0 mm 2 mps 760 mmHg 79%
    10:00 +10°C° 0 mm 3 mps 760 mmHg 76%
    11:00 +11°C° 0 mm 4 mps 760 mmHg 74%
    12:00 +12°C° 0 mm 4 mps 760 mmHg 71%
    13:00 +12°C° 0 mm 4 mps 759 mmHg 72%
    14:00 +13°C° 0 mm 4 mps 759 mmHg 74%
    15:00 +13°C° 0 mm 4 mps 759 mmHg 75%
    16:00 +12°C° 0 mm 4 mps 758 mmHg 79%
    17:00 +11°C° 0 mm 4 mps 758 mmHg 84%
    18:00 +10°C° 0 mm 4 mps 758 mmHg 88%
    19:00 +10°C° 0 mm 4 mps 758 mmHg 89%
    20:00 +10°C° 0 mm 4 mps 758 mmHg 89%
    21:00 +9°C° 0 mm 5 mps 757 mmHg 89%
    22:00 +10°C° 0 mm 4 mps 757 mmHg 88%
    23:00 +8°C° 0 mm 4 mps 757 mmHg 87%

    27 October, Sunday

    Time Temperature Precipitation Wind Pressure Humidity
    00:00 +8°C° 0 mm 4 mps 757 mmHg 86%
    01:00 +8°C° 0 mm 4 mps 757 mmHg 83%
    02:00 +8°C° 0 mm 4 mps 756 mmHg 81%
    03:00 +7°C° 0 mm 4 mps 756 mmHg 79%
    04:00 +7°C° 0 mm 4 mps 756 mmHg 79%
    05:00 +7°C° 0 mm 5 mps 756 mmHg 78%
    06:00 +7°C° 0 mm 5 mps 755 mmHg 77%
    07:00 +8°C° 0 mm 5 mps 755 mmHg 72%
    08:00 +9°C° 0 mm 6 mps 755 mmHg 67%
    09:00 +11°C° 0 mm 7 mps 755 mmHg 62%
    10:00 +12°C° 0 mm 7 mps 755 mmHg 58%
    11:00 +14°C° 0 mm 7 mps 755 mmHg 54%
    12:00 +16°C° 0 mm 8 mps 755 mmHg 49%
    13:00 +16°C° 0 mm 7 mps 754 mmHg 51%
    14:00 +15°C° 0 mm 7 mps 754 mmHg 53%
    15:00 +15°C° 0 mm 6 mps 753 mmHg 55%
    16:00 +15°C° 0 mm 7 mps 753 mmHg 58%
    17:00 +14°C° 0 mm 7 mps 753 mmHg 60%
    18:00 +12°C° 0 mm 7 mps 753 mmHg 62%
    19:00 +12°C° 0 mm 7 mps 752 mmHg 63%
    20:00 +12°C° 0 mm 7 mps 752 mmHg 64%
    21:00 +12°C° 0 mm 7 mps 752 mmHg 64%
    22:00 +11°C° 0 mm 7 mps 751 mmHg 65%
    23:00 +11°C° 0 mm 7 mps 751 mmHg 65%

    28 October, Monday

    Time Temperature Precipitation Wind Pressure Humidity
    00:00 +11°C° 0 mm 7 mps 750 mmHg 65%
    01:00 +10°C° 0 mm 7 mps 750 mmHg 65%
    02:00 +10°C° 0 mm 7 mps 749 mmHg 65%
    03:00 +10°C° 0 mm 7 mps 749 mmHg 65%
    04:00 +9°C° 0 mm 7 mps 748 mmHg 64%
    05:00 +9°C° 0 mm 7 mps 748 mmHg 63%
    06:00 +9°C° 0 mm 7 mps 747 mmHg 62%
    07:00 +10°C° 0 mm 7 mps 747 mmHg 58%
    08:00 +10°C° 0 mm 8 mps 747 mmHg 55%
    09:00 +11°C° 0 mm 8 mps 746 mmHg 52%
    10:00 +12°C° 0 mm 8 mps 747 mmHg 52%
    11:00 +12°C° 0 mm 8 mps 747 mmHg 52%
    12:00 +13°C° 0 mm 9 mps 747 mmHg 52%
    13:00 +12°C° 0.8 mm 7 mps 747 mmHg 64%
    14:00 +10°C° 0.8 mm 6 mps 747 mmHg 75%
    15:00 +9°C° 0.8 mm 5 mps 747 mmHg 87%
    16:00 +8°C° 0.3 mm 4 mps 747 mmHg 87%
    17:00 +9°C° 0.3 mm 3 mps 747 mmHg 86%
    18:00 +9°C° 0.3 mm 3 mps 747 mmHg 86%
    19:00 +8°C° 0 mm 2 mps 747 mmHg 87%
    20:00 +9°C° 0 mm 1 mps 747 mmHg 88%
    21:00 +8°C° 0 mm 1 mps 747 mmHg 89%
    22:00 +8°C° 0 mm 1 mps 747 mmHg 89%
    23:00 +7°C° 0 mm 1 mps 747 mmHg 90%
    Show more